STARLINK-34900 (65374 NORAD) Tracking and Keplerian Element Data

This shows tracking and keplerian element data for the satellite.

Feedback or suggestion? Click here.




ElementValue
Catalog65374
NameSTARLINK-34900
Epoch Orbit1685
Epoch Day352.8081598
Epoch Year2025
RAAN183.7307
Inclination53.1577
Eccentricity0.0001478
Argument of Perigee78.0502
Mean Anonmoly282.0664
Mean Motion15.30200521
Decay Rate9.942E-05
L11 65374U 25190Z 25352.80815980 .00009942 00000+0 34735-3 0 9996
L22 65374 53.1577 183.7307 0001478 78.0502 282.0664 15.30200521 16853



Live tracking and technical data element details for STARLINK-34900 (NORAD 65374). STARLINK-34900 can be tracked NOW for your location showing map with azimuth and elevation plus other details from your city location.







IsCatalogInMostPopularTable: catalog: 65374, numindb: 4
Update: records affected: 1



GetName: 65374 STARLINK-34900

Hit Count: updated at: Mon, 09 Feb 2026 08:50:44 GMT